Back to catalog

IRIDIUM 33 DEB

AlivePO
NORAD 34896·DEBRIS·🇺🇸 United States

Launched Sep 14, 1997 from Baikonur Cosmodrome

Loading…

Next Passes (next 24 hours)

TLE

FreshSource: Space-Track

Epoch: Sep 14, 2026, 14:15 UTC

1 34896U 97051MY  26257.59410998  .00003256  00000-0  55413-3 0  9996
2 34896  86.3325 202.7032 0025665 357.5910 129.4602 14.68596291916651

Track IRIDIUM 33 DEB in real time with AllMySat

Download on the App Store